Location: Holiday Acres Laynes 2 Mobile Home Park
(26.7249°N, 81.8671°W)
Time: 12:49:27
(UTC+00:00)

GPS 2-15 Rocket1 - Visible Passes

Search period start: 17 April 2021 00:00
Search period end: 27 April 2021 00:00
Orbit: 623 x 675 km, 19.8° (Epoch: 16 April)

Date Brightness Start Highest point End Pass type
(mag) Time Alt. Az. Time Alt. Az. Time Alt. Az.
17 Apr 4.8 00:45:20 10° WSW 00:48:56 22° SSW 00:51:45 13° SSE visible
18 Apr 5.2 01:12:05 10° SW 01:14:42 15° SSW 01:16:08 13° S visible
20 Apr 5.4 00:20:01 10° SW 00:22:27 14° SSW 00:24:53 10° SSE visible
